Change the Weather History Date:

Thursday, June 14, 2012

  Actual Average Record
Temperature  
Mean Temperature 94 °F -  
Max Temperature 106 °F 103 °F 115 °F (1966)
Min Temperature 82 °F 75 °F 63 °F (1958)
Cooling Degree Days 28    
Growing Degree Days 44 (Base 50)    
Moisture  
Dew Point 28 °F    
Average Humidity 9    
Maximum Humidity 15    
Minimum Humidity 6    
Precipitation  
Precipitation 0.00 in - - ()
Sea Level Pressure  
Sea Level Pressure 29.56 in    
Wind  
Wind Speed 5 mph (SW)    
Max Wind Speed 16 mph    
Max Gust Speed 23 mph    
Visibility 10 miles    
Events      
Averages and records for this station are not official NWS values.
T = Trace of Precipitation, MM = Missing Value Source: NWS Daily Summary

Daily Weather History Graph

Daily Weather History Graph

Search for Another Location

Airport or City:

Trip Planner

Search our weather history database for the weather conditions in past years. The results will help you decide how hot, cold, wet, or windy it might be!

Date:

Astronomy

Jun. 14, 2012 Rise Set
Actual Time 5:24 AM PDT 7:53 PM PDT
Civil Twilight 4:55 AM PDT 8:22 PM PDT
Nautical Twilight 4:18 AM PDT 8:59 PM PDT
Astronomical Twilight 3:38 AM PDT 9:39 PM PDT
Moon 2:01 AM PDT (6/14) 3:46 PM PDT (6/14)
Length of Visible Light 15h 27m
Length of Day
14h 28m
Waning Crescent, 20% of the Moon is Illuminated
Jun 14
Waning Crescent
Jun 19
New
Jun 26
First Quarter
Jul 3
Full
Jul 10
Last Quarter

Hourly Weather History & Observations

Time (PDT) Temp. Dew Point Humidity Pressure Visibility Wind Dir Wind Speed Gust Speed Precip Events Conditions
12:56 AM 91.0 °F 23.0 °F 8% 29.52 in 10.0 mi Calm Calm - N/A   Clear
1:56 AM 90.0 °F 25.0 °F 10% 29.53 in 10.0 mi Calm Calm - N/A   Clear
2:56 AM 91.0 °F 28.9 °F 11% 29.53 in 10.0 mi SSW 3.5 mph - N/A   Clear
3:56 AM 84.9 °F 30.0 °F 14% 29.54 in 10.0 mi Calm Calm - N/A   Clear
4:56 AM 82.9 °F 30.9 °F 15% 29.55 in 10.0 mi West 3.5 mph - N/A   Clear
5:56 AM 82.0 °F 28.0 °F 14% 29.57 in 10.0 mi Calm Calm - N/A   Clear
6:56 AM 86.0 °F 28.9 °F 13% 29.59 in 10.0 mi WNW 3.5 mph - N/A   Clear
7:56 AM 91.9 °F 28.0 °F 10% 29.60 in 10.0 mi Calm Calm - N/A   Clear
8:56 AM 95.0 °F 28.9 °F 10% 29.61 in 10.0 mi NE 4.6 mph - N/A   Clear
9:56 AM 97.0 °F 26.1 °F 8% 29.61 in 10.0 mi SSE 9.2 mph - N/A   Clear
10:56 AM 100.9 °F 24.1 °F 7% 29.61 in 10.0 mi SSW 12.7 mph 17.3 mph N/A   Clear
11:56 AM 102.0 °F 25.0 °F 7% 29.60 in 10.0 mi SW 12.7 mph - N/A   Clear
12:56 PM 104.0 °F 25.0 °F 6% 29.59 in 10.0 mi SSW 13.8 mph 21.9 mph N/A   Clear
1:56 PM 104.0 °F 26.1 °F 6% 29.57 in 10.0 mi SE 8.1 mph 18.4 mph N/A   Clear
2:56 PM 105.1 °F 26.1 °F 6% 29.55 in 10.0 mi SSW 10.4 mph - N/A   Clear
3:56 PM 105.1 °F 26.1 °F 6% 29.54 in 10.0 mi South 12.7 mph 20.7 mph N/A   Clear
4:56 PM 104.0 °F 28.9 °F 7% 29.53 in 10.0 mi SSW 11.5 mph 23.0 mph N/A   Clear
5:56 PM 102.9 °F 28.0 °F 7% 29.52 in 10.0 mi SW 12.7 mph 17.3 mph N/A   Clear
6:56 PM 102.9 °F 26.1 °F 7% 29.52 in 10.0 mi SSW 16.1 mph 23.0 mph N/A   Clear
7:56 PM 100.0 °F 27.0 °F 8% 29.52 in 10.0 mi WSW 10.4 mph - N/A   Clear
8:56 PM 96.1 °F 25.0 °F 8% 29.52 in 10.0 mi SW 9.2 mph - N/A   Clear
9:56 PM 93.0 °F 26.1 °F 9% 29.54 in 10.0 mi WSW 11.5 mph - N/A   Clear
10:56 PM 91.9 °F 35.1 °F 13% 29.53 in 10.0 mi WSW 13.8 mph - N/A   Clear
11:56 PM 90.0 °F 37.0 °F 15% 29.54 in 10.0 mi West 12.7 mph - N/A   Clear